Miscellaneous Local Product
Issued by NWS North Platte, NE

Home | Current Version | Previous Version | Graphics & Text | Print | Product List | Glossary On
Versions: 1 2 3 4 5 6 7 8 9 10 11 12 13 14 15 16 17 18 19 20 21 22 23 24 25 26 27 28 29 30 31 32 33 34 35 36 37 38 39 40 41 42 43 44 45 46 47 48 49 50
000
AXUS43 KLBF 031510
MISLBF


WESTERN AND NORTH CENTRAL NEBRASKA HOURLY WEATHER ROUNDUP
NATIONAL WEATHER SERVICE NORTH PLATTE NE
1000 AM CDT MON AUG 03 2015

***STATIONS NOT REPORTING VARIABLES SUCH AS SKY/WEATHER OR
PRESSURE ARE PROVIDED BY THE NEBRASKA DEPARTMENT OF
ROADS...RAWS...AND APRS NETWORKS...AND ARE NOT UNDER
NATIONAL WEATHER SERVICE QUALITY CONTROL***

...OBSERVATIONS IN AND NEAR THE EASTERN PANHANDLE OF NEBRASKA...

CITY           SKY/WX    TMP DP  RH WIND       PRES   REMARKS
PINE RIDGE     MOSUNNY   75  60  59 SE9       30.04R
CHADRON        MOSUNNY   70  59  68 E5        30.02S
ALLIANCE       MOSUNNY   72  59  63 SE14      30.04R
SIDNEY         MOSUNNY   74  56  53 E6        30.06R
BIG SPRINGS      N/A     73  61  65 SE7         N/A
$$

...OBSERVATIONS IN NORTH CENTRAL NEBRASKA...

CITY           SKY/WX    TMP DP  RH WIND       PRES   REMARKS
THEDFORD       PTSUNNY   74  60  63 SE13      30.05S
AINSWORTH      SUNNY     73  60  63 SE9       30.04R
O`NEILL        CLOUDY    71  62  73 S8        30.02R
ORD            MOSUNNY   72  59  63 SE9       29.98F
BROKEN BOW     MOSUNNY   72  61  68 SE12G18   30.03S
SPRINGVIEW       N/A     70  67  92 CALM        N/A
CHAMBERS         N/A     75  65  72 CALM        N/A
EWING            N/A     70  64  80 E3          N/A
$$

...OBSERVATIONS IN SOUTHWEST NEBRASKA AND FAR NORTHEAST COLORADO...

CITY           SKY/WX    TMP DP  RH WIND       PRES   REMARKS
WRAY           FAIR      79  60  52 SE7       30.04R
HOLYOKE        FAIR      79  61  53 SE8       30.04S
IMPERIAL       MOSUNNY   73  58  59 SE12      30.02S
OGALLALA       MOSUNNY   73  63  69 SE10      30.03S
NORTH PLATTE   MOSUNNY   71  62  73 SE13      30.02F
MCCOOK         SUNNY     75  64  68 E10       30.00S
LEXINGTON      MOSUNNY   74  64  73 E13       30.02F
PAXTON           N/A     70  66  88 E5          N/A
BRADY            N/A     72  64  74 N5G12       N/A
CALLAWAY         N/A     73  66  80 E17         N/A
$$

...NORTH PLATTE AREA...

CITY           SKY/WX    TMP DP  RH WIND       PRES   REMARKS
AIRPORT        MOSUNNY   71  62  73 SE13      30.02F
DOWNTOWN         N/A     72  64  75 SE5G12      N/A
SANDRIDGE        N/A     72  64  74 E5G12       N/A
HILLCREST        N/A     74  64  70 E16G26      N/A
$$

...SOME WEATHER OBSERVATIONS FROM AROUND THE REGION...

CITY           SKY/WX    TMP DP  RH WIND       PRES   REMARKS
DENVER         CLOUDY    76  48  37 W5        30.10S
LARAMIE        PTSUNNY   67  45  45 N5        30.23S
CHEYENNE       PTSUNNY   72  51  47 SW5       30.15R
SCOTTSBLUFF    PTSUNNY   69  58  67 E7        30.04R
RAPID CITY     MOSUNNY   71  57  61 SE7       30.06R
PIERRE         SUNNY     71  58  63 CALM      30.01S
WINNER           N/A     75  59  57 SE3       30.02S
SIOUX FALLS    MOSUNNY   72  56  57 SW7       30.00S
OMAHA          PTSUNNY   74  61  63 E3        30.01R
GRAND ISLAND   MOSUNNY   69  62  78 E12       30.03F
KANSAS CITY    PTSUNNY   80  68  66 S7        29.95S
WICHITA        PTSUNNY   81  69  67 SW13      29.95S
HAYS           FAIR      79  64  61 NE6       29.97R
LIBERAL        MOSUNNY   79  66  65 S9        30.00S
GOODLAND       MOSUNNY   79  62  56 E6        30.03S
$$



USA.gov is the U.S. government's official web portal to all federal, state and local government web resources and services.